Location: *
(58.7167°N, 26.1833°E)
Time: 06:15:31
(UTC+00:00)

Cosmos 1184 Rocket - Pass Details

Date: 25 August 2019
Orbit: 412 x 426 km, 81.2° (Epoch: 18 September)

Event Time Altitude Azimuth Distance (km) Brightness Sun altitude
Exits shadow 22:37:15 37° 86° (E) 675 3.8 -20.6°
Drops below altitude 10° 22:40:05 10° 29° (NNE) 1,505 6.5 -20.5°
Sets 22:42:12 0° 21° (NNE) 2,376 8.0 -20.5°
